[[{"header":{"parameterUnit":"m.s-1","parameterCategory":1,"la1":30.2991,"la2":30.254,"lo1":-89.0895,"lo2":-89.0444,"dy":0.0017,"dx":0.0017,"nx":28,"ny":28,"refTime":"2024-06-03T09:00:00:Z","depth":0,"parameterNumber":2,"parameterNumberName":"U-component_of_WINDS"},"data":[0,0,0,0,0,0,0,0,0,0,0,0,0,0,0,0,0,0,0,0,0,0,0,0,0,0,0,0,0,0,0,0,0,0,0,0,0,0,0,0,0,0,0,0,0,0,0,0,0,0,0,0,0,0,0,0,0,0,-0.0288,-0.0288,0,-0.0273,-0.0273,-0.0273,-0.029,-0.0291,-0.0291,-0.0292,-0.0277,-0.0276,-0.0275,0,0,0,0,0,0,0,0,0,0,0,0,0,-0.0331,-0.033,-0.0288,-0.0288,-0.0287,-0.0273,-0.0273,-0.0273,-0.029,-0.0291,-0.0292,-0.0292,-0.0277,-0.0276,-0.0275,0,0,0,0,0,0,0,0,0,0,0,0,0,-0.0314,-0.0329,-0.0288,-0.0294,-0.0295,-0.0273,-0.0273,-0.0273,-0.029,-0.0291,-0.0292,-0.0293,-0.0277,-0.0276,-0.0274,-0.0246,0,0,-0.027,-0.0269,0,0,0,0,0,0,0,0,-0.0315,-0.0312,-0.0294,-0.0294,-0.0294,-0.0285,-0.0283,-0.0264,-0.029,-0.0292,-0.0292,-0.0293,-0.0278,-0.0277,-0.0272,-0.0245,-0.0244,-0.027,-0.0269,-0.0268,-0.0268,0,0,0,0,0,0,0,-0.0316,-0.0313,-0.0282,-0.0293,-0.0294,-0.0298,-0.0297,-0.0279,-0.028,-0.0292,-0.0293,-0.0291,-0.0279,-0.0273,-0.0272,-0.0244,-0.027,-0.0268,-0.0267,-0.0267,-0.0194,-0.0193,0,0,0,0,0,0,-0.0316,-0.0314,-0.0283,-0.0282,-0.0307,-0.0296,-0.0295,-0.0287,-0.028,-0.028,-0.029,-0.0292,-0.0276,-0.0274,-0.0271,-0.0238,-0.0268,-0.0267,-0.0266,-0.0195,-0.0194,-0.0193,0,0,0,0,0,0,-0.0317,-0.0313,-0.0283,-0.0298,-0.0294,-0.0295,-0.0285,-0.0286,-0.0281,-0.0279,-0.0279,-0.0284,-0.0276,-0.0273,-0.0252,-0.0238,-0.0266,-0.0265,-0.0196,-0.0195,-0.0193,-0.017,0,0,0,0,0,0,-0.0318,-0.0313,-0.0302,-0.0298,-0.0294,-0.0264,-0.0284,-0.0285,-0.0278,-0.028,-0.0274,-0.0274,-0.0277,-0.0254,-0.0251,-0.0236,-0.0263,-0.0197,-0.0195,-0.0194,-0.0172,-0.0168,-0.0165,0,0,0,0,0,-0.032,-0.0296,-0.0302,-0.0298,-0.028,-0.0263,-0.0261,-0.0265,-0.0277,-0.0266,-0.0265,-0.0274,-0.024,-0.0252,-0.0248,-0.0233,-0.0198,-0.0196,-0.0194,-0.0174,-0.0169,-0.0165,0,0,0,0,0,0,-0.0299,-0.0296,-0.0302,-0.0276,-0.027,-0.0266,-0.0252,-0.026,-0.025,-0.0252,-0.0258,-0.0256,-0.0234,-0.0231,-0.0245,-0.0205,-0.0221,-0.0218,-0.0208,-0.0203,-0.0199,-0.02,-0.0262,0,0,0,0,0,-0.0292,-0.0278,-0.0276,-0.0254,-0.0251,-0.0252,-0.0245,-0.0249,-0.0242,-0.024,-0.0237,-0.0231,-0.0219,-0.0211,-0.0199,-0.0172,-0.0171,-0.016,-0.0156,-0.0153,-0.015,-0.0136,-0.0131,-0.0185,-0.0185,-0.0185,0,0,-0.0276,-0.0273,-0.0264,-0.025,-0.0245,-0.0232,-0.025,-0.0234,-0.0224,-0.0237,-0.0217,-0.0215,-0.0208,-0.0184,-0.0174,-0.0182,-0.0135,-0.015,-0.0147,-0.0146,-0.0133,-0.0128,-0.0123,-0.0183,-0.0184,-0.0184,0,0,-0.024,-0.0236,-0.0218,-0.0213,-0.0206,-0.0208,-0.0203,-0.0198,-0.0198,-0.0178,-0.0188,-0.0176,-0.0155,-0.015,-0.0144,-0.0108,-0.0116,-0.0104,-0.0084,-0.007,-0.0066,-0.0062,-0.005,-0.0045,-0.0101,-0.0101,-0.0101,0,-0.0222,-0.0202,-0.0207,-0.0191,-0.0185,-0.0197,-0.0178,-0.0173,-0.0163,-0.0159,-0.0168,-0.0142,-0.0138,-0.0113,-0.0105,-0.01,-0.0095,-0.0105,-0.0066,-0.0063,-0.0059,-0.0047,-0.0042,-0.01,-0.01,-0.01,-0.01,0,-0.0179,-0.0165,-0.0151,-0.0141,-0.0133,-0.0116,-0.0119,-0.011,-0.0115,-0.0116,-0.0096,-0.0092,-0.008,-0.0075,-0.0079,-0.005,-0.0056,-0.0065,-0.0081,-0.0052,-0.0041,-0.0037,-0.0098,-0.0098,-0.0099,-0.0099,0,0,-0.013,-0.0124,-0.0119,-0.0115,-0.0109,-0.0098,-0.0081,-0.007,-0.0063,-0.0056,-0.0042,-0.0025,-0.0034,-0.0028,-0.0032,-0.002,0.0008,-0.0031,-0.0031,-0.0024,0.0039,0.0046,0.0052,0.0003,0.0004,0.0004,0.0038,0,-0.0095,-0.0066,-0.0071,-0.0043,-0.0031,-0.0042,-0.0028,-0.0023,-0.0023,-0.0012,-0.0012,0.0,-0.0013,-0.0009,0.0002,0.0002,0.0021,-0.0,0.0015,0.0016,0.0014,0.0058,0.0066,0.0098,0.0043,0.0044,0.0044,0,-0.0049,-0.0041,-0.0012,-0.0009,-0.0004,0.0009,0.0019,0.0029,0.0035,0.0033,0.004,0.0033,0.005,0.0033,0.0055,0.0041,0.0047,0.0048,0.0049,0.005,0.0032,0.006,0.0108,0.0113,0.0051,0.005,0.005,0,-0.0017,0.0002,0.0021,0.0025,0.003,0.0039,0.0041,0.0046,0.0053,0.0061,0.0065,0.0075,0.008,0.0088,0.0084,0.0073,0.0107,0.009,0.0106,0.0106,0.0114,0.0114,0.0163,0.0118,0.0118,0.0118,0.0118,0,0.0023,0.0041,0.0036,0.0048,0.0068,0.0062,0.0081,0.0082,0.0086,0.0098,0.0089,0.01,0.0094,0.0105,0.0102,0.012,0.0123,0.0122,0.0122,0.0123,0.0123,0.0127,0.0125,0.0119,0.0119,0.0119,0.0118,0,0.0063,0.006,0.0081,0.0083,0.0084,0.0099,0.0101,0.0112,0.0111,0.0126,0.0129,0.0127,0.0139,0.0136,0.0149,0.0147,0.017,0.0167,0.0169,0.0168,0.0184,0.0182,0.0238,0.0245,0.0195,0.0195,0.0196,0,0.0088,0.0102,0.0106,0.0113,0.0116,0.0128,0.0134,0.0129,0.0136,0.0143,0.0153,0.0164,0.0173,0.0193,0.0193,0.0202,0.0199,0.0217,0.02,0.0201,0.0199,0.0198,0.0199,0.0221,0.0222,0.0222,0.0222,0,0.0134,0.0132,0.0142,0.0151,0.0159,0.0166,0.0172,0.0179,0.0174,0.0182,0.0194,0.0201,0.0214,0.0225,0.0234,0.0236,0.0229,0.0228,0.0232,0.0234,0.0234,0.0234,0.0178,0.0227,0.0226,0.0226,0.0226,0.0225,0.0167,0.0178,0.0183,0.0194,0.0198,0.0204,0.0214,0.0214,0.0224,0.0234,0.023,0.0244,0.0249,0.026,0.0263,0.0274,0.0267,0.0273,0.0274,0.0276,0.0278,0.0233,0.0275,0.0275,0.0275,0.0275,0.0275,0,0.0212,0.0214,0.0224,0.0233,0.0242,0.0233,0.0239,0.0247,0.0259,0.0264,0.0273,0.0286,0.0297,0.0297,0.0307,0.0316,0.0312,0.0318,0.0318,0.0318,0.0284,0.0279,0.0321,0.0321,0.0321,0.0321,0.0321,0.0321,0.0236,0.0254,0.0253,0.0273,0.0275,0.0288,0.0292,0.0297,0.0301,0.0317,0.0325,0.0326,0.0329,0.0338,0.0348,0.0347,0.0351,0.0359,0.0357,0.0325,0.0321,0.0316,0.0312,0.036,0.036,0.0391,0.0391,0.0391]},{"header":{"parameterUnit":"m.s-1","parameterCategory":1,"la1":30.2991,"la2":30.254,"lo1":-89.0895,"lo2":-89.0444,"dy":0.0017,"dx":0.0017,"nx":28,"ny":28,"refTime":"2024-06-03T09:00:00:Z","depth":0,"parameterNumber":3,"parameterNumberName":"V-component_of_WINDS"},"data":[0,0,0,0,0,0,0,0,0,0,0,0,0,0,0,0,0,0,0,0,0,0,0,0,0,0,0,0,0,0,0,0,0,0,0,0,0,0,0,0,0,0,0,0,0,0,0,0,0,0,0,0,0,0,0,0,0,0,4.4343,4.4343,0,4.4411,4.4411,4.4412,4.4357,4.4355,4.4353,4.4351,4.4418,4.4422,4.4426,0,0,0,0,0,0,0,0,0,0,0,0,0,4.4163,4.4166,4.4343,4.4343,4.4344,4.4411,4.4411,4.4412,4.4358,4.4355,4.4352,4.435,4.4417,4.4422,4.4426,0,0,0,0,0,0,0,0,0,0,0,0,0,4.4237,4.4167,4.4342,4.4325,4.4324,4.441,4.4412,4.4413,4.4358,4.4355,4.4352,4.4348,4.4415,4.4421,4.4427,4.4533,0,0,4.4445,4.4448,0,0,0,0,0,0,0,0,4.4233,4.4243,4.4327,4.4326,4.4326,4.4372,4.4373,4.4453,4.4359,4.4345,4.4351,4.4347,4.4406,4.4412,4.4432,4.4536,4.4539,4.4446,4.4449,4.4452,4.4454,0,0,0,0,0,0,0,4.4227,4.424,4.4369,4.4328,4.4327,4.4313,4.432,4.4388,4.4394,4.4346,4.4343,4.4352,4.4405,4.4427,4.4434,4.454,4.4446,4.4451,4.4455,4.4457,4.4733,4.4737,0,0,0,0,0,0,4.4224,4.4236,4.4367,4.4371,4.427,4.4319,4.4327,4.4361,4.4393,4.4395,4.4354,4.4349,4.4418,4.4427,4.4436,4.4562,4.4452,4.4457,4.4461,4.473,4.4734,4.4738,0,0,0,0,0,0,4.4221,4.4237,4.4364,4.4303,4.4318,4.4326,4.4365,4.4364,4.4386,4.4399,4.44,4.4376,4.4416,4.4427,4.4509,4.4563,4.446,4.4465,4.4725,4.4731,4.4736,4.4815,0,0,0,0,0,0,4.4216,4.4236,4.4277,4.4304,4.4322,4.4438,4.4368,4.4368,4.4397,4.439,4.442,4.4422,4.4414,4.4501,4.4515,4.4569,4.447,4.472,4.4728,4.4735,4.4807,4.4822,4.4835,0,0,0,0,0,4.421,4.4296,4.4279,4.4295,4.4373,4.4441,4.4451,4.4441,4.4401,4.4442,4.445,4.4421,4.4555,4.451,4.4525,4.4582,4.4717,4.4726,4.4734,4.4801,4.4819,4.4835,0,0,0,0,0,0,4.4274,4.4299,4.4281,4.4379,4.4409,4.4432,4.4483,4.4461,4.4502,4.4494,4.448,4.4487,4.4573,4.4586,4.4535,4.4686,4.4629,4.4641,4.4675,4.4692,4.4706,4.4701,4.4475,0,0,0,0,0,4.43,4.4354,4.4372,4.4457,4.4473,4.4476,4.4505,4.4495,4.4525,4.4537,4.4551,4.458,4.4629,4.4661,4.4707,4.4809,4.4814,4.4855,4.4869,4.4881,4.4891,4.4945,4.4964,4.4766,4.4766,4.4766,0,0,4.4354,4.4374,4.4409,4.447,4.4492,4.4547,4.4487,4.4548,4.4588,4.4546,4.4624,4.4635,4.4667,4.4759,4.48,4.4772,4.4947,4.4892,4.4901,4.4905,4.4956,4.4974,4.4991,4.4772,4.4771,4.477,0,0,4.4479,4.4501,4.4573,4.4596,4.463,4.4631,4.4648,4.4675,4.4681,4.476,4.4729,4.4776,4.486,4.4884,4.4907,4.5041,4.5015,4.5056,4.5129,4.5181,4.5197,4.5211,4.5258,4.5275,4.5066,4.5067,4.5067,0,4.4542,4.4624,4.4613,4.4676,4.4704,4.4668,4.4741,4.4763,4.481,4.4829,4.4797,4.4902,4.4921,4.5018,4.505,4.507,4.5089,4.5053,4.5196,4.5209,4.5222,4.5267,4.5285,4.5071,4.5071,4.507,4.507,0,4.4699,4.4756,4.4811,4.4857,4.4891,4.4959,4.4956,4.4992,4.4978,4.4983,4.5062,4.5084,4.5132,4.5155,4.5142,4.525,4.5231,4.5198,4.5141,4.5246,4.5288,4.5305,4.5078,4.5077,4.5075,4.5074,0,0,4.4868,4.4907,4.4927,4.4947,4.4981,4.5025,4.509,4.5139,4.5169,4.5202,4.5256,4.5328,4.5297,4.5323,4.5313,4.536,4.5463,4.532,4.5321,4.5346,4.5582,4.5607,4.5627,4.5446,4.5449,4.5452,4.5579,0,4.4995,4.511,4.5101,4.5209,4.5261,4.5228,4.5285,4.5311,4.5317,4.5361,4.5367,4.5418,4.5374,4.5389,4.5434,4.5441,4.5511,4.5432,4.5495,4.5498,4.5489,4.5649,4.5675,4.5795,4.5596,4.5598,4.56,0,4.5159,4.5198,4.5311,4.5337,4.5358,4.541,4.5453,4.5496,4.5525,4.5526,4.5555,4.5537,4.5602,4.5543,4.5632,4.5579,4.5604,4.5611,4.5616,4.5621,4.5556,4.5658,4.5832,4.585,4.5626,4.5624,4.5622,0,4.527,4.5351,4.5429,4.5448,4.5479,4.5516,4.5531,4.5556,4.5586,4.5623,4.5642,4.5686,4.571,4.5744,4.5738,4.5696,4.5829,4.5769,4.583,4.5831,4.586,4.5858,4.604,4.5877,4.5876,4.5876,4.5876,0,4.5413,4.5484,4.548,4.5528,4.5605,4.5594,4.5671,4.5681,4.5704,4.5753,4.5726,4.5772,4.5761,4.5807,4.5802,4.5876,4.5887,4.5889,4.5887,4.5892,4.5891,4.5908,4.5899,4.5881,4.588,4.5879,4.5878,0,4.5551,4.5551,4.5634,4.5657,4.5664,4.572,4.574,4.5784,4.5787,4.5849,4.5863,4.5868,4.592,4.5917,4.5976,4.5973,4.6064,4.6052,4.6055,4.6052,4.6113,4.6107,4.6312,4.6338,4.6158,4.616,4.6161,0,4.5642,4.5695,4.5724,4.5755,4.5772,4.5822,4.5852,4.5842,4.5874,4.5911,4.5951,4.6001,4.604,4.6125,4.6133,4.6178,4.6167,4.6236,4.6173,4.6176,4.6167,4.6164,4.6169,4.6248,4.625,4.6251,4.6253,0,4.5803,4.58,4.5845,4.5889,4.5925,4.596,4.5991,4.6018,4.6011,4.6048,4.6101,4.6132,4.6192,4.6241,4.6284,4.6298,4.6274,4.6272,4.6289,4.6294,4.6293,4.6294,4.6088,4.6268,4.6266,4.6265,4.6264,4.6264,4.592,4.5966,4.5993,4.6043,4.6065,4.6095,4.6138,4.6146,4.6191,4.6239,4.623,4.629,4.6316,4.6371,4.6389,4.6435,4.6411,4.6435,4.644,4.6447,4.6453,4.6286,4.6443,4.6443,4.6442,4.6442,4.6441,0,4.608,4.6095,4.6141,4.6186,4.6225,4.62,4.6232,4.6267,4.632,4.6346,4.6386,4.6446,4.6494,4.6506,4.6551,4.6586,4.6576,4.6598,4.6595,4.6599,4.6473,4.6454,4.6605,4.6605,4.6605,4.6605,4.6605,4.6605,4.6167,4.6243,4.6244,4.633,4.6344,4.6403,4.6424,4.6451,4.6472,4.6541,4.6581,4.6588,4.6609,4.6656,4.6698,4.67,4.6718,4.6744,4.6742,4.6624,4.6608,4.6592,4.6574,4.6748,4.6749,4.6864,4.6865,4.6866]}]]